sat.trackr.live / text

‹ back to catalog

STARLINK-32895

NORAD 63081 · 2025-037E

PAYLOAD ACTIVE UNKNOWN

§ Identity

Operator
Country
US
Launch date
2025-02-23
Launch site
AFWTR
Launch vehicle
Mass (kg)
RCS (m²)

Purposes: comms

External: N2YO · Heavens-Above · Gunter

§ Orbital elements

Epoch: 2026-05-25T02:24:52.326432Z

Period
96.11 min
Inclination
70.0004°
Eccentricity
0.0004407
Mean motion
14.98329987 rev/d
Perigee alt
569.0 km
Apogee alt
575.1 km
Semi-major
6,950.2 km
B*
3.2221e-4
RAAN
161.9583°
Arg perigee
265.6179°
Mean anomaly
94.4476°
Rev number
6,990

§ Raw data

STARLINK-328951 63081U 25037E   26145.10060563  .00003754  00000+0  32221-3 0  99952 63081  70.0004 161.9583 0004407 265.6179  94.4476 14.98329987 69903

JSON: /api/v1/satellites/63081 · /tle

For live sub-satellite position, see the globe view (requires WebGL).

§ Visibility from observer

Set your observer location to see the next 7 days of passes ≥ 10°. The values pass through the URL so the page stays shareable.

No JS? Fill the form by hand. The geolocation button needs JavaScript.